Weather History for Kaneohe MCBH, HI

Change the Weather History Date:

Sunday, January 6, 2013

  Actual Average Record
Temperature  
Mean Temperature 76 °F -  
Max Temperature 80 °F 76 °F 81 °F (1999)
Min Temperature 71 °F 66 °F 60 °F (1997)
Cooling Degree Days 10    
Growing Degree Days 26 (Base 50)    
Moisture  
Dew Point 65 °F    
Average Humidity 71    
Maximum Humidity 83    
Minimum Humidity 61    
Precipitation  
Precipitation 0.01 in - - ()
Sea Level Pressure  
Sea Level Pressure 30.10 in    
Wind  
Wind Speed 13 mph (East)    
Max Wind Speed 18 mph    
Max Gust Speed 33 mph    
Visibility 8 miles    
Events Rain    
Averages and records for this station are not official NWS values.
T = Trace of Precipitation, MM = Missing Value Source: NWS Daily Summary

Daily Weather History Graph

Daily Weather History Graph

Search for Another Location

Airport:

Trip Planner

Search our weather history database for the weather conditions in past years. The results will help you decide how hot, cold, wet, or windy it might be!

Date:

Astronomy

Jan. 06, 2013 Rise Set
Actual Time 7:10 AM HST 6:04 PM HST
Civil Twilight 6:46 AM HST 6:28 PM HST
Nautical Twilight 6:18 AM HST 6:55 PM HST
Astronomical Twilight 5:51 AM HST 7:22 PM HST
Moon 1:52 AM HST (1/6) 1:27 PM HST (1/6)
Length of Visible Light 11h 41m
Length of Day
10h 53m
Waning Crescent, 31% of the Moon is Illuminated
Jan 6
Waning Crescent
Jan 11
New
Jan 18
First Quarter
Jan 26
Full
Feb 3
Last Quarter

Hourly Weather History & Observations

Time (HST) Temp. Heat Index Dew Point Humidity Pressure Visibility Wind Dir Wind Speed Gust Speed Precip Events Conditions
12:28 AM 73.4 °F - 64.4 °F 73% 30.16 in 6.2 mi ENE 11.5 mph 19.6 mph N/A   Overcast
12:40 AM 73.4 °F - 64.4 °F 73% 30.16 in 6.2 mi East 13.8 mph 25.3 mph N/A   Overcast
12:57 AM 71.6 °F - 64.0 °F 77% 30.14 in 10.0 mi ENE 10.4 mph 28.8 mph N/A   Mostly Cloudy
1:44 AM - - - N/A% 30.14 in 6.2 mi East 12.7 mph 19.6 mph N/A   Overcast
1:54 AM - - - N/A% 30.14 in 6.2 mi East 18.4 mph 26.5 mph N/A   Overcast
1:57 AM - - - N/A% 30.13 in 10.0 mi East 15.0 mph 26.5 mph N/A   Overcast
2:57 AM 71.6 °F - 64.9 °F 79% 30.12 in 10.0 mi East 9.2 mph 21.9 mph 0.00 in   Mostly Cloudy
3:57 AM 71.6 °F - 63.0 °F 74% 30.11 in 10.0 mi East 10.4 mph 19.6 mph N/A   Overcast
4:57 AM 71.6 °F - 63.0 °F 74% 30.12 in 10.0 mi East 15.0 mph 26.5 mph N/A   Partly Cloudy
5:57 AM 71.6 °F - 63.0 °F 74% 30.12 in 10.0 mi ENE 17.3 mph 26.5 mph 0.00 in   Mostly Cloudy
6:46 AM 73.4 °F - 64.4 °F 73% 30.13 in 6.2 mi East 15.0 mph 24.2 mph N/A   Overcast
6:57 AM 73.4 °F - 64.0 °F 72% 30.12 in 10.0 mi East 9.2 mph 25.3 mph N/A   Mostly Cloudy
7:39 AM 73.4 °F - 64.4 °F 73% 30.15 in 6.2 mi East 12.7 mph 23.0 mph N/A   Mostly Cloudy
7:57 AM 73.4 °F - 67.6 °F 82% 30.13 in 10.0 mi Variable 6.9 mph 29.9 mph N/A   Mostly Cloudy
8:39 AM 73.4 °F - 68.0 °F 83% 30.16 in 6.2 mi East 12.7 mph 27.6 mph 0.00 in   Partly Cloudy
8:57 AM 73.4 °F - 67.6 °F 82% 30.15 in 10.0 mi East 15.0 mph 26.5 mph 0.00 in   Partly Cloudy
9:57 AM 73.4 °F - 64.0 °F 72% 30.15 in 10.0 mi East 18.4 mph 27.6 mph N/A   Scattered Clouds
10:12 AM 75.2 °F - 64.4 °F 69% 30.16 in 6.2 mi East 11.5 mph 24.2 mph N/A   Mostly Cloudy
10:57 AM 75.2 °F - 64.0 °F 68% 30.14 in 10.0 mi East 11.5 mph 21.9 mph N/A   Mostly Cloudy
11:46 AM 77.0 °F - 66.2 °F 69% 30.13 in 6.2 mi East 13.8 mph 27.6 mph N/A   Mostly Cloudy
11:57 AM 77.0 °F - 66.0 °F 69% 30.11 in 10.0 mi East 18.4 mph 28.8 mph N/A   Mostly Cloudy
12:23 PM 78.8 °F - 66.2 °F 65% 30.11 in 6.2 mi East 17.3 mph 28.8 mph N/A   Mostly Cloudy
12:57 PM 78.8 °F - 66.9 °F 67% 30.08 in 10.0 mi ESE 16.1 mph 27.6 mph N/A   Scattered Clouds
1:06 PM 80.6 °F 82.7 °F 66.2 °F 61% 30.09 in 6.2 mi East 13.8 mph 32.2 mph N/A   Mostly Cloudy
1:18 PM 80.6 °F 82.7 °F 66.2 °F 61% 30.08 in 6.2 mi ENE 11.5 mph 26.5 mph N/A   Mostly Cloudy
1:26 PM 80.6 °F 82.7 °F 66.2 °F 61% 30.07 in 6.2 mi ENE 15.0 mph 24.2 mph N/A   Overcast
1:57 PM 80.6 °F 82.7 °F 66.0 °F 61% 30.05 in 10.0 mi East 13.8 mph 26.5 mph N/A   Mostly Cloudy
2:21 PM 80.6 °F 82.7 °F 66.2 °F 61% 30.05 in 6.2 mi East 11.5 mph 28.8 mph N/A   Mostly Cloudy
2:36 PM 80.6 °F 82.7 °F 66.2 °F 61% 30.05 in 6.2 mi East 18.4 mph 28.8 mph N/A   Overcast
2:44 PM 80.6 °F 82.7 °F 66.2 °F 61% 30.05 in 6.2 mi East 13.8 mph 27.6 mph N/A   Mostly Cloudy
2:57 PM 80.6 °F 82.7 °F 66.0 °F 61% 30.04 in 10.0 mi East 13.8 mph 33.4 mph N/A   Mostly Cloudy
3:07 PM - - - N/A% - - North - - N/A   Unknown
3:25 PM 80.6 °F 82.7 °F 66.2 °F 61% 30.05 in 6.2 mi ESE 13.8 mph 26.5 mph N/A   Mostly Cloudy
3:57 PM 77.0 °F - 66.0 °F 69% 30.03 in 10.0 mi East 17.3 mph 28.8 mph N/A   Overcast
4:57 PM 77.0 °F - 64.9 °F 66% 30.04 in 10.0 mi East 13.8 mph 27.6 mph N/A   Mostly Cloudy
5:04 PM 75.2 °F - 64.4 °F 69% 30.06 in 6.2 mi East 15.0 mph 24.2 mph N/A   Mostly Cloudy
5:57 PM 75.2 °F - 64.9 °F 70% 30.06 in 10.0 mi ENE 13.8 mph 25.3 mph N/A   Mostly Cloudy
6:57 PM 73.4 °F - 64.9 °F 75% 30.08 in 10.0 mi ENE 10.4 mph 21.9 mph 0.01 in   Mostly Cloudy
7:29 PM 73.4 °F - 66.2 °F 78% 30.10 in 10.0 mi ENE 11.5 mph 21.9 mph 0.00 in   Overcast
7:57 PM 73.4 °F - 66.0 °F 78% 30.09 in 10.0 mi East 10.4 mph 20.7 mph 0.00 in   Overcast
8:35 PM 75.2 °F - 66.2 °F 73% 30.11 in 6.2 mi ENE 8.1 mph 18.4 mph 0.00 in Rain Light Rain
8:42 PM 75.2 °F - 66.2 °F 73% 30.11 in 6.2 mi East 9.2 mph 17.3 mph 0.00 in   Overcast
8:57 PM 75.2 °F - 66.0 °F 73% 30.10 in 10.0 mi East 10.4 mph 23.0 mph 0.00 in   Overcast
9:57 PM 73.4 °F - 66.0 °F 78% 30.10 in 10.0 mi East 10.4 mph 20.7 mph 0.00 in   Mostly Cloudy
10:04 PM 73.4 °F - 64.4 °F 73% 30.11 in 6.2 mi East 13.8 mph 21.9 mph N/A   Mostly Cloudy
10:57 PM 73.4 °F - 64.9 °F 75% 30.09 in 10.0 mi East 15.0 mph 24.2 mph N/A   Mostly Cloudy
11:57 PM - - - N/A% 30.07 in 10.0 mi East 13.8 mph 23.0 mph 0.00 in Rain Light Rain